Simultaneous Nadir Overpasses (SNOs) Predictions

Prediction of SNOs between GOES-15 and LANDSAT-8 Satellite Orbit:

Table of predicted SNOs for the next 14.0 days since TLE Epoch: 12/18/2021
Index Date Time (GOES-15) GOES-15 Lat,Lon LANDSAT-8 Lat,Lon Distance(km) Time Diff (sec)
1 12/18/2021 06:34:01 0.13,-127.76 0.56,-125.75 228.55 80
2 12/18/2021 18:57:56 -0.11,-127.78 0.56,-130.90 355.20 80
3 12/20/2021 18:43:05 -0.11,-127.85 -0.12,-127.95 12.08 80
4 12/22/2021 18:30:53 -0.11,-127.91 -0.74,-124.99 331.28 80
5 12/23/2021 06:54:57 0.09,-127.92 -0.37,-130.19 257.16 80
6 12/25/2021 06:40:05 0.09,-127.98 0.26,-127.23 85.46 80
7 12/25/2021 19:04:00 -0.08,-127.99 0.86,-132.38 498.94 80
8 12/27/2021 06:27:53 0.09,-128.03 0.90,-124.27 427.73 80
9 12/27/2021 18:51:48 -0.08,-128.04 0.23,-129.42 156.79 80
10 12/29/2021 18:36:56 -0.08,-128.09 -0.41,-126.46 184.66 80
11 12/30/2021 07:01:00 0.07,-128.10 -0.68,-131.65 403.96 80
